Powrót do katalogu

STARLINK-2001

AktywnyŁącznośćVLEO
NORAD 47596·PAYLOAD·🇺🇸 United States

Wystrzelony Feb 4, 2021 z Cape Canaveral Space Force Station

Loading…

Następne Przeloty (najbliższe 24 godziny)

TLE

ŚwieżeSource: CelesTrak SupGP

Epoka: Sep 14, 2026, 22:10 UTC

1 47596C 21009BA  26257.92409722  .01073300  00000+0  92953-3 0  2571
2 47596  53.0241 162.5009 0004734 173.6580 244.8544 16.11962964    16

Śledź STARLINK-2001 w czasie rzeczywistym z AllMySat

Download on the App Store